WetterOnline ( https://www.wetteronline.de )

Wetter aktuell Rosenthal-Bielatal

Aktuelles Wetter: Usti Nad Labem (378m)

6-stündlich | Neueste Meldungen
Ortszeit Temperatur Wetter
Do, 13.08. 14:00 29.5° C fast wolkenlos
Do, 13.08. 8:00 19.6° C leicht bewölkt
Do, 13.08. 2:00 21.5° C -
Mi, 12.08. 20:00 26.0° C fast wolkenlos
Mi, 12.08. 14:00 28.6° C leicht bewölkt
Mi, 12.08. 8:00 20.1° C fast wolkenlos
Mi, 12.08. 2:00 19.3° C -
Di, 11.08. 20:00 22.4° C wolkig
Ortszeit Temperatur Wetter
Do, 13.08. 19:00 30.1° C leicht bewölkt
Do, 13.08. 18:00 30.9° C fast wolkenlos
Do, 13.08. 17:00 30.5° C leicht bewölkt
Do, 13.08. 16:00 30.7° C leicht bewölkt
Do, 13.08. 15:00 30.5° C leicht bewölkt
Do, 13.08. 14:00 29.5° C fast wolkenlos
Ortszeit Relative Feuchte Sichtweite
Do, 13.08. 14:00 35% 65 km
Do, 13.08. 8:00 72% 40 km
Do, 13.08. 2:00 62% 30 km
Mi, 12.08. 20:00 42% >70 km
Mi, 12.08. 14:00 41% 55 km
Mi, 12.08. 8:00 71% 60 km
Mi, 12.08. 2:00 72% 35 km
Di, 11.08. 20:00 78% 45 km
Ortszeit Relative Feuchte Sichtweite
Do, 13.08. 19:00 30% 30 km
Do, 13.08. 18:00 28% 35 km
Do, 13.08. 17:00 29% 70 km
Do, 13.08. 16:00 31% >70 km
Do, 13.08. 15:00 32% 70 km
Do, 13.08. 14:00 35% 65 km
Ortszeit Niederschlagsmenge Niederschlagsart
Do, 13.08. 14:00 0.0 l/m2 in 6 Std. -
Do, 13.08. 8:00 0.0 l/m2 in 12 Std. -
Do, 13.08. 2:00 0.0 l/m2 in 6 Std. -
Mi, 12.08. 20:00 0.0 l/m2 in 12 Std. -
Mi, 12.08. 14:00 0.0 l/m2 in 6 Std. -
Mi, 12.08. 8:00 0.0 l/m2 in 12 Std. -
Mi, 12.08. 2:00 0.0 l/m2 in 6 Std. -
Di, 11.08. 20:00 3 l/m2 in 12 Std. -
Ortszeit Niederschlagsmenge Niederschlagsart
Do, 13.08. 19:00 0.0 l/m2 in 1 Std. -
Do, 13.08. 18:00 0.0 l/m2 in 1 Std. -
Do, 13.08. 17:00 0.0 l/m2 in 1 Std. -
Do, 13.08. 16:00 0.0 l/m2 in 1 Std. -
Do, 13.08. 15:00 0.0 l/m2 in 1 Std. -
Do, 13.08. 14:00 0.0 l/m2 in 1 Std. -
Ortszeit Stärke Spitze Richtung
km/h Bft. km/h Grad Sektor
Do, 13.08. 14:00 7 2 - 130° SO
Do, 13.08. 8:00 4 1 - 170° S
Do, 13.08. 2:00 11 2 - 80° O
Mi, 12.08. 20:00 7 2 - 90° O
Mi, 12.08. 14:00 7 2 - 140° SO
Mi, 12.08. 8:00 4 1 - uml. uml.
Mi, 12.08. 2:00 4 1 - uml. uml.
Di, 11.08. 20:00 4 1 40 - -
Ortszeit Stärke Spitze Richtung
km/h Bft. km/h Grad Sektor
Do, 13.08. 19:00 7 2 - 150° SO
Do, 13.08. 18:00 7 2 - 140° SO
Do, 13.08. 17:00 11 2 - 140° SO
Do, 13.08. 16:00 7 2 - 140° SO
Do, 13.08. 15:00 7 2 - 110° O
Do, 13.08. 14:00 7 2 - 130° SO
Ortszeit Untergrenze Bedeckung Gattung
total tief tief mittel hoch
Do, 13.08. 14:00 1800 m 2/8 1/8 Cu Ac Ci
Do, 13.08. 8:00 3300 m 2/8 2/8 - Ac Cc
Do, 13.08. 2:00 - - - - - -
Mi, 12.08. 20:00 1500 m 2/8 1/8 Cu Ac Ci
Mi, 12.08. 14:00 1500 m 2/8 2/8 Cb Ac -
Mi, 12.08. 8:00 4200 m 2/8 2/8 - Ac -
Mi, 12.08. 2:00 - - - - - -
Di, 11.08. 20:00 1800 m 6/8 2/8 Cu Ac Ci
Ortszeit Bedeckungsgrad in Achtel und Wolkenuntergrenze
Do, 13.08. 19:00 3(5400m)
Do, 13.08. 18:00 1(5400m)
Do, 13.08. 17:00 1(2400m)
Do, 13.08. 16:00 1(2100m) 3(4500m)
Do, 13.08. 15:00 1(2100m)
Do, 13.08. 14:00 1(1800m)
Ortszeit Luftdruck NN (hPa) Tendenz (hPa in 3 Std.)
Do, 13.08. 14:00 1013 - 1,1
Do, 13.08. 8:00 1016 + 0,2
Do, 13.08. 2:00 1016 0,0
Mi, 12.08. 20:00 1016 - 0,6
Mi, 12.08. 14:00 1017 - 0,9
Mi, 12.08. 8:00 1019 + 0,5
Mi, 12.08. 2:00 1019 - 0,1
Di, 11.08. 20:00 1018 0,0
Ortszeit Luftdruck NN (hPa) Tendenz (hPa in 3 Std.)
Do, 13.08. 19:00 1011 - 0,5
Do, 13.08. 18:00 1011 - 1,0
Do, 13.08. 17:00 1011 - 1,2
Do, 13.08. 16:00 1012 - 1,2
Do, 13.08. 15:00 1012 - 1,3
Do, 13.08. 14:00 1013 - 1,1
Ortszeit Schneehöhe (cm)
Do, 13.08. 14:00 -
Do, 13.08. 8:00 -
Do, 13.08. 2:00 -
Mi, 12.08. 20:00 0
Mi, 12.08. 14:00 -
Mi, 12.08. 8:00 -
Mi, 12.08. 2:00 -
Di, 11.08. 20:00 0
Ortszeit Schneehöhe (cm)
Do, 13.08. 19:00 -
Do, 13.08. 18:00 -
Do, 13.08. 17:00 -
Do, 13.08. 16:00 -
Do, 13.08. 15:00 -
Do, 13.08. 14:00 -
Link zu dieser Seite / Seite empfehlen

Das Wetter in ...